{"data":{"norad_id":46039,"epoch":"2026-05-25T02:40:08.683968Z","epoch_age_seconds":62446,"freshness":"FRESH","line1":"1 46039U 20055N   26145.11121162  .00000573  00000+0  31484-4 0  9995","line2":"2 46039  53.1600 131.7309 0001201  89.0013 271.1125 15.30189683320589","mean_motion":15.30189683,"eccentricity":0.0001201,"inclination_deg":53.16,"raan_deg":131.7309,"arg_perigee_deg":89.0013,"mean_anomaly_deg":271.1125,"bstar":3.1484e-5,"rev_number":32058,"period_min":94.105980193045,"perigee_km":474.42278301155,"apogee_km":476.06896557795,"semimajor_km":6853.3828742948,"source":"CELESTRAK","updated_at":"2026-05-25T13:38:16.460014Z"}}